Home > Weather > Stellenbosch > Past weeks

Flag for South Africa Past Weather in Stellenbosch, South Africa — Yesterday and Last 2 Weeks

Now
64 °F

Sunny.


Feels Like: 64 °F
Forecast: 50 / 78 °F
Wind: 7 mph from Northwest

Location: Cape Town International Airport

Current Time: Aug 28, 2016 at 4:12:40 PM

Latest Report: Aug 28, 2016 at 3:00 PM


Visibility: 10 mi

Pressure: 30.09 "Hg

Humidity: 64%

Dew Point: 52 °F

Location of StellenboschLocation

Past Weather in Stellenbosch — Graph

°F

Stellenbosch Temperature Yesterday

Maximum temperature yesterday: 81 °F (at 2:00 PM)
Minimum temperature yesterday: 52 °F (at 1:00 AM)
Average temperature yesterday: 61 °F

High & Low Weather Summary for the Past Weeks

 TemperatureHumidityPressure
High82 °F (Aug 26, 2:00 PM)100% (Aug 17, 3:00 AM)30.42 "Hg (Aug 17, 3:00 AM)
Low41 °F (Aug 16, 6:00 AM)30% (Aug 27, 2:00 PM)29.89 "Hg (Aug 13, 10:00 PM)
Average58 °F75%30.15 "Hg
* Reported Aug 13 3:00 PM — Aug 28 3:00 PM, Stellenbosch, Weather by CustomWeather, © 2016

Note: Actual official high and low records may vary slightly from our data, if they occured in-between our weather recording intervals... More about our weather records

Advertising

Stellenbosch Weather History for the Previous 24 Hours

Scroll right to see more
 ConditionsComfort  
Time TempWeatherWind HumidityBarometerVisibility
3:00 PM
Sun, Aug 28
64 °FSunny.7 mph64%30.09 "Hg10 mi
2:00 PM63 °FSunny.14 mph68%30.12 "Hg10 mi
1:00 PM61 °FSunny.16 mph72%30.12 "Hg10 mi
12:00 PM59 °FSunny.18 mph77%30.15 "Hg10 mi
11:00 AM59 °FPassing clouds.17 mph82%30.12 "HgN/A
10:00 AM55 °FPassing clouds.15 mph88%30.12 "HgN/A
9:00 AM55 °FSunny.7 mph88%30.12 "Hg10 mi
8:00 AM54 °FFog.7 mph88%30.09 "Hg2 mi
7:00 AM54 °FPassing clouds.14 mph94%30.09 "Hg6 mi
6:00 AM54 °FPassing clouds.8 mph94%30.09 "HgN/A
5:00 AM54 °FPassing clouds.10 mph94%30.09 "Hg4 mi
4:00 AM55 °FLow clouds.8 mph94%30.09 "Hg4 mi
3:00 AM55 °FFog.9 mph94%30.09 "Hg2 mi
2:00 AM54 °FLow clouds.8 mph100%30.09 "Hg1 mi
1:00 AM55 °FLow clouds.8 mph94%30.07 "Hg1 mi
12:00 AM55 °FPassing clouds.13 mph94%30.07 "HgN/A
11:00 PM
Sat, Aug 27
59 °FClear.9 mph82%30.04 "Hg10 mi
10:00 PM59 °FClear.12 mph94%30.04 "Hg10 mi
9:00 PM54 °FFog.No wind100%30.04 "Hg4 mi
8:00 PM55 °FFog.1 mph94%30.04 "Hg0 mi
7:02 PM55 °FFog.5 mph94%30.04 "Hg1 mi
6:00 PM61 °FClear.7 mph83%30.01 "Hg10 mi
5:00 PM68 °FSunny.5 mph69%30.01 "Hg10 mi
4:00 PM72 °FSunny.7 mph61%30.01 "Hg10 mi
Weather by CustomWeather, © 2016

See weather overviewHow to use our weather pages